RH
95 98 101 101 100 101 102 104 105 105 103 94 85 86 89 81 67 55 50 49 48 46 46 46 48 58 73 90 98 98 100 101 102 101 95 91 92 94 100 106 107 105 99 96 92 79 60 45 38 37 37 39 43 49 51 50 52 55 57 58 58 58 58 57 56 56 53 49 48 49 49 49 51 50
99 100 100 101 102 102 102 103 101 98 90 75 72 83 84 71 58 50 48 48 48 46 45 48 54 62 75 94 103 102 101 101 103 102 98 98 101 104 108 107 106 105 101 98 92 75 54 41 38 38 38 43 49 53 56 56 58 61 63 65 64 62 61 59 58 59 61 61 61 60 58 56 56 56
99 100 101 101 102 101 101 98 89 79 69 65 74 82 74 60 52 50 50 50 47 46 46 51 56 56 61 78 94 102 104 101 102 102 100 103 105 105 105 104 104 102 100 99 86 62 45 39 38 37 41 49 55 59 64 65 66 68 69 70 68 65 64 61 59 59 62 65 68 69 70 69 67 65
98 101 101 101 101 100 95 86 72 62 62 70 76 71 60 54 52 53 53 50 47 46 43 42 43 42 44 56 73 89 99 101 100 102 102 102 102 102 102 102 103 101 94 83 65 48 41 39 37 40 48 56 60 65 69 71 73 77 78 75 70 68 67 63 61 60 60 63 66 68 73 77 79 78
102 104 104 102 99 93 86 75 66 66 71 72 65 58 56 56 55 54 52 49 45 40 34 30 29 31 35 45 58 75 91 99 98 100 101 100 101 103 103 102 97 85 69 54 46 42 40 38 39 46 55 61 64 70 72 73 77 84 87 81 73 71 68 64 63 62 60 61 63 64 67 71 77 82
101 102 103 97 90 85 80 75 75 78 75 65 55 54 58 56 52 51 47 42 38 32 28 29 29 29 31 35 44 58 77 94 100 100 99 98 99 96 88 78 65 51 42 41 44 43 40 41 45 53 61 66 70 73 74 75 80 89 93 86 78 73 69 67 68 64 61 61 61 60 60 61 66 72
98 98 96 87 83 86 84 82 85 82 71 58 48 51 59 54 42 40 36 31 31 30 29 32 32 32 33 33 36 42 55 72 80 78 73 70 67 60 50 44 40 39 42 45 45 43 44 50 53 59 68 73 76 77 76 79 86 93 93 86 82 79 73 73 72 66 64 64 62 61 59 57 58 60
104 99 88 82 87 94 91 88 89 80 65 51 42 44 55 52 37 31 28 26 29 31 31 32 32 32 34 34 36 38 42 48 49 47 44 42 40 37 36 38 42 46 48 48 49 51 56 60 61 68 76 80 81 79 79 84 91 96 91 85 87 87 82 80 76 69 68 67 65 64 63 60 59 57
101 89 81 84 95 98 94 93 89 73 55 45 37 34 42 44 35 26 24 26 30 31 30 31 32 33 34 34 35 37 38 39 39 38 38 38 39 40 41 44 47 50 52 54 58 62 67 69 72 78 83 84 83 80 82 89 97 98 90 85 90 93 90 87 81 75 73 71 69 68 66 64 64 63
88 80 80 88 97 101 98 93 81 65 52 45 37 30 31 34 30 24 24 26 30 32 33 34 34 36 35 34 35 37 37 38 38 38 40 41 42 44 46 49 52 55 58 61 65 70 74 76 81 88 90 88 85 82 85 94 99 97 89 86 91 94 94 93 88 83 80 78 77 74 70 68 69 69
74 74 80 89 100 105 100 88 74 64 57 47 37 30 28 27 25 24 24 25 30 35 38 38 38 38 37 35 37 38 39 39 39 42 44 45 45 47 51 54 56 58 62 65 70 75 78 80 84 90 93 94 90 86 90 97 98 93 89 89 92 96 99 99 96 93 91 88 86 81 76 75 77 75
69 71 79 92 103 104 97 86 74 68 64 54 41 32 27 26 25 25 26 29 35 39 40 39 39 39 39 38 39 41 42 42 42 45 47 46 47 50 54 57 59 61 65 69 73 79 82 82 84 89 95 100 97 94 98 101 99 96 93 93 96 101 105 105 102 99 97 95 93 87 83 84 84 81
67 68 80 95 101 98 93 87 77 72 71 63 48 35 29 30 30 30 33 37 42 45 44 42 41 42 43 42 44 45 44 44 46 49 50 49 48 51 56 61 62 63 68 72 78 86 85 81 86 94 101 106 104 100 102 102 102 102 98 96 101 105 106 107 105 103 101 99 97 93 90 88 85 81
68 71 81 91 94 92 90 86 79 78 80 73 56 40 34 37 38 39 42 46 50 53 51 47 45 48 50 48 49 49 46 46 48 52 55 55 53 55 60 67 70 68 70 75 83 89 85 84 96 103 106 111 108 101 100 102 101 100 97 97 101 102 103 104 103 103 102 100 100 100 99 96 90 87
72 75 81 88 92 91 89 86 85 89 90 82 67 51 44 43 45 48 52 55 59 61 60 56 52 53 55 53 53 52 49 49 50 53 57 58 58 60 65 73 78 73 70 75 83 88 90 94 102 106 108 110 104 97 100 102 98 96 97 101 102 101 103 103 102 103 102 100 101 102 104 103 99 98
76 77 84 94 98 95 91 88 92 99 99 90 78 67 60 57 55 57 61 64 67 68 69 66 61 60 59 56 56 55 53 53 53 55 58 58 60 64 67 73 77 71 68 72 77 89 99 99 97 101 105 101 94 94 99 99 96 97 101 104 103 103 106 105 104 104 102 101 102 102 106 109 105 103
76 76 85 96 99 95 93 93 97 102 103 97 87 77 72 69 65 65 69 72 75 76 76 74 70 66 62 59 60 61 60 59 59 59 60 61 64 67 67 70 71 69 70 73 77 92 103 96 90 97 99 93 91 97 99 97 100 103 104 104 104 106 107 106 105 103 100 101 104 104 106 110 108 106
80 81 86 94 97 95 94 95 98 101 102 99 91 83 80 76 72 73 77 78 79 80 80 77 73 69 67 66 67 65 63 62 61 63 66 68 68 68 69 71 71 71 73 75 80 91 97 94 94 99 100 98 100 104 101 100 105 106 103 103 105 108 107 105 103 102 101 105 108 106 105 106 105 104
91 92 94 97 101 103 101 100 99 100 98 93 90 89 86 81 80 83 81 78 80 81 77 74 71 67 68 70 70 66 63 62 64 69 73 73 71 72 76 76 74 74 77 80 85 92 97 99 100 103 106 106 105 103 101 104 109 107 103 104 106 107 107 104 102 104 108 109 107 106 105 104 104 105
97 96 100 103 106 107 105 102 99 97 92 85 83 86 87 87 90 91 83 76 76 75 72 71 69 66 66 65 64 63 63 65 72 77 78 75 72 76 82 83 83 85 89 93 96 98 99 101 102 103 105 104 100 99 101 104 107 106 105 107 108 106 105 103 103 109 111 106 103 105 105 104 105 107
97 97 100 102 101 102 103 103 99 94 89 83 81 85 88 89 92 91 83 74 69 68 69 69 66 64 63 61 60 61 65 72 81 84 81 76 71 72 76 80 84 90 94 96 95 94 96 100 100 98 96 93 93 98 103 104 105 105 106 110 110 104 102 104 109 110 103 96 98 103 101 101 104 105
97 97 95 92 92 97 101 101 97 92 89 86 85 85 85 83 80 78 76 72 68 67 67 66 63 61 60 59 60 63 69 78 83 82 78 75 72 70 70 73 78 84 88 90 89 89 93 95 92 89 88 89 93 100 105 104 104 106 106 108 107 103 102 109 112 102 89 86 93 98 99 102 106 106
93 89 83 84 93 101 103 100 95 92 90 88 86 83 80 77 74 73 73 73 71 69 66 65 64 62 60 60 63 67 73 77 77 73 71 71 72 71 70 72 77 81 87 90 91 91 90 88 86 86 86 88 93 100 105 103 103 108 108 103 101 102 106 110 103 87 79 81 88 95 101 105 106 106
94 89 87 92 100 102 102 101 97 91 86 83 82 81 77 75 73 72 72 72 72 70 67 65 63 61 61 62 65 68 72 72 70 69 69 70 70 72 73 76 80 85 91 95 95 92 89 88 89 90 89 89 92 99 102 101 103 110 108 100 100 107 110 103 88 77 76 80 84 90 94 95 95 95
85 85 86 95 105 108 105 103 99 91 85 81 79 77 74 71 70 70 70 70 68 66 64 63 61 60 61 64 66 68 69 68 67 67 68 69 71 73 77 81 87 92 96 96 93 90 89 90 92 93 92 94 96 99 101 103 106 108 103 99 105 111 104 89 77 73 75 77 80 83 83 82 81 77
76 73 71 78 94 106 109 106 100 91 84 79 76 74 71 68 67 68 68 66 64 62 60 59 58 59 62 64 66 67 67 66 67 67 68 70 72 76 81 88 93 96 96 95 92 89 89 90 92 95 98 99 101 102 104 109 111 105 100 104 111 105 89 74 70 71 72 73 74 74 71 68 62 56
86 86 86 90 99 105 107 102 93 83 77 73 71 70 69 66 65 65 65 64 62 60 57 57 57 59 62 63 65 66 67 67 68 69 71 73 76 81 87 91 94 94 93 92 91 91 92 94 97 100 101 101 102 105 109 112 108 101 102 108 104 87 71 65 66 67 68 69 68 63 56 49 43 39
79 82 88 96 100 100 98 92 82 75 74 72 70 67 64 62 60 60 61 61 60 57 56 58 61 63 66 68 68 69 69 70 72 73 75 79 82 86 90 93 94 93 91 90 91 92 95 99 102 102 100 101 106 111 111 108 103 104 108 104 87 70 62 62 64 64 64 61 54 45 38 33 30 29
83 80 77 78 79 78 77 73 69 67 68 68 67 65 62 60 59 58 57 56 55 56 58 63 68 72 74 75 75 75 75 75 77 79 83 87 89 91 93 96 96 94 92 93 95 98 100 103 103 102 100 103 109 112 110 106 106 109 104 87 69 60 59 60 59 56 50 43 35 29 25 24 23 21
98 93 85 78 74 71 70 70 70 71 71 71 71 69 66 63 59 55 53 55 58 62 67 73 79 83 83 83 82 81 80 80 82 85 89 91 93 95 98 99 97 95 95 98 101 104 106 105 103 102 102 104 106 107 108 108 106 98 81 64 57 56 55 52 46 39 32 27 23 20 19 18 18 16
101 100 96 87 79 75 77 81 81 79 78 76 74 72 68 65 61 59 62 67 72 76 81 85 89 90 89 88 86 84 84 85 87 89 91 92 94 97 99 100 99 98 99 102 105 106 106 107 106 104 105 106 107 108 108 103 91 76 61 53 52 50 44 38 31 25 22 20 18 16 16 15 15 15
100 102 102 96 87 82 82 83 81 77 75 74 72 72 72 73 75 78 81 85 88 91 93 94 94 93 92 90 89 88 89 90 91 92 92 93 95 98 100 101 101 101 102 104 105 104 104 105 106 106 106 108 109 109 103 87 69 57 51 48 43 37 30 25 21 19 17 16 14 14 14 14 15 15
99 101 101 100 98 95 92 90 87 83 80 78 77 79 81 84 88 91 93 96 98 98 98 97 97 97 96 95 94 94 94 94 93 93 93 94 96 99 100 100 101 103 104 105 105 103 103 104 105 106 109 111 109 101 85 66 52 47 43 38 31 26 22 19 17 15 14 13 13 13 13 14 14 13
100 101 100 99 100 100 100 99 98 95 90 88 88 90 91 93 95 97 99 102 105 105 104 104 102 101 99 98 97 96 94 93 92 92 93 96 98 98 99 100 102 103 104 106 106 103 103 106 108 109 110 108 99 81 61 49 45 40 33 27 23 20 18 15 13 13 13 13 14 14 13 12 11 11
101 100 100 99 100 100 100 101 101 99 97 97 97 98 98 98 99 101 103 106 108 108 107 105 103 101 98 96 95 94 93 92 93 95 97 98 99 99 100 101 102 103 106 108 106 104 107 110 109 107 104 94 76 57 45 41 37 30 24 20 19 16 14 12 12 13 13 14 14 13 12 10 9 10
101 100 100 100 100 100 100 101 101 100 100 100 100 101 103 104 105 107 107 107 105 103 101 99 98 96 95 94 94 94 95 96 97 99 100 100 100 101 101 101 103 105 106 106 105 106 109 107 102 96 86 68 52 43 38 33 26 21 19 17 15 14 13 12 13 14 14 13 13 11 10 10 10 10
100 100 100 100 99 99 99 100 101 101 101 102 102 104 104 104 103 101 100 98 98 97 95 95 95 95 96 96 97 98 99 100 101 102 102 101 101 101 101 103 105 104 103 104 106 106 103 97 87 74 59 46 39 36 31 24 19 16 15 13 12 12 13 14 14 13 12 12 11 10 10 10 9 8
100 99 99 99 100 100 101 101 101 101 99 99 99 99 98 96 95 94 95 96 97 97 97 98 98 99 99 99 100 100 101 102 102 103 102 100 101 103 104 103 102 102 104 105 103 96 88 78 64 50 41 38 35 30 23 18 15 13 11 11 12 13 13 13 12 11 11 11 10 9 8 8 8 7
100 100 101 101 101 101 101 100 100 100 98 97 97 98 98 98 98 98 99 100 100 100 100 100 100 100 100 101 101 101 102 102 102 101 100 101 103 104 103 101 102 105 104 98 89 78 67 54 44 38 37 35 29 22 18 15 12 10 11 12 13 12 12 11 11 10 10 9 8 7 8 8 8 8
100 100 100 100 100 100 100 100 100 100 100 100 100 100 100 100 100 100 100 100 100 100 100 100 100 100 101 101 101 101 101 101 101 100 101 102 102 101 102 104 105 102 92 80 69 57 46 39 37 36 33 27 21 17 15 12 10 11 12 13 12 11 10 10 10 9 8 7 7 8 8 9 9 9
100 101 100 100 100 100 100 100 100 100 101 100 100 100 100 100 101 101 100 100 100 100 100 100 100 100 100 100 101 101 101 100 101 101 101 101 101 102 104 103 96 84 70 59 49 40 36 36 35 30 24 19 16 13 11 10 11 12 13 11 10 10 10 10 8 7 7 7 8 8 8 9 10 10
100 100 100 100 100 100 100 101 101 101 101 100 100 100 100 100 100 100 100 100 100 100 100 100 99 99 100 100 99 100 100 100 100 100 101 102 103 102 96 86 73 60 49 42 37 35 35 33 27 21 17 15 12 10 10 12 12 12 12 11 10 10 9 8 7 7 7 7 7 7 8 8 9 9
100 101 100 100 100 100 101 101 101 100 100 100 100 100 100 100 100 100 100 100 101 100 100 99 99 99 99 99 99 99 99 99 100 101 103 102 98 88 76 62 50 42 37 35 34 33 29 24 18 15 13 11 10 10 12 13 12 11 11 11 10 9 8 7 6 7 7 6 7 7 7 7 8 8
100 100 100 100 100 100 101 101 101 101 100 100 100 100 100 100 100 100 100 100 100 100 100 100 100 100 100 99 99 98 99 100 101 101 98 90 79 66 53 43 37 35 35 34 31 26 21 17 14 11 10 10 11 12 13 12 11 10 11 12 11 9 7 7 7 7 6 7 7 7 7 8 8 8
100 100 100 100 100 100 101 101 100 100 100 100 100 100 100 100 100 100 100 100 100 100 100 100 100 100 99 99 99 99 99 99 97 91 82 70 57 46 38 35 35 34 32 28 23 19 15 13 10 9 10 11 12 13 12 11 11 11 12 12 10 8 7 7 7 7 7 8 8 8 8 9 9 9
Wind_Speed
46 46 45 45 46 46 45 44 43 42 41 40 39 39 39 41 41 41 40 41 41 39 38 35 33 30 27 24 22 22 22 22 21 21 21 21 22 23 25 28 29 31 32 32 32 32 33 35 36 36 38 40 42 44 47 48 51 53 56 58 60 59 58 55 52 49 46 44 42 41 39 37 36 35
49 50 51 50 49 47 44 42 42 42 41 39 38 38 39 40 40 39 39 40 40 38 36 33 30 28 25 23 22 23 24 24 23 23 23 24 25 26 28 30 31 32 33 34 34 35 35 35 35 36 38 40 43 46 49 51 54 57 59 61 62 62 61 58 54 50 47 44 41 40 40 39 36 34
51 53 53 51 48 45 43 41 40 40 39 37 37 37 38 38 38 37 38 39 38 36 33 30 27 25 23 22 22 24 25 25 25 25 25 26 27 28 30 32 33 34 35 36 36 36 35 35 35 37 39 42 45 48 51 54 56 59 62 64 64 64 63 61 57 52 48 44 41 40 40 40 38 35
50 51 51 48 45 43 40 39 39 38 36 35 35 35 36 36 36 36 36 37 36 33 29 27 26 25 24 23 23 23 24 24 25 26 27 28 29 30 32 34 35 36 37 38 37 35 35 35 36 38 40 44 46 49 52 55 58 61 64 66 66 66 65 63 59 55 50 45 42 39 37 36 36 35
46 47 46 44 42 40 39 38 37 35 34 32 32 33 34 35 35 34 35 34 32 29 27 26 26 25 24 23 23 22 22 23 25 26 28 30 31 33 34 36 38 39 39 37 35 34 35 36 37 39 42 45 48 51 53 56 58 61 65 68 68 68 67 65 62 58 53 48 44 40 37 34 33 33
45 45 43 41 40 39 38 36 35 34 32 29 29 31 33 34 34 32 31 30 28 27 27 26 25 25 25 24 23 23 23 23 25 28 30 32 34 36 38 39 39 39 36 34 33 34 35 36 38 41 44 47 50 53 55 57 60 62 66 69 70 70 69 68 65 62 57 53 48 44 40 36 34 32
45 45 43 40 38 38 36 35 33 32 30 27 27 30 33 33 30 29 27 26 25 27 27 26 25 24 25 24 24 24 24 25 27 30 32 34 36 38 38 36 35 33 31 32 33 35 37 39 42 44 47 50 52 55 57 59 61 64 67 70 72 73 73 71 69 65 61 57 53 49 46 42 39 36
44 43 41 38 37 37 36 34 33 31 28 27 27 28 31 31 29 26 24 22 22 24 25 24 23 23 23 23 23 24 25 27 29 30 32 33 34 34 32 31 30 30 31 33 36 38 41 43 45 47 49 52 55 57 59 61 63 66 69 72 74 75 75 75 72 69 66 63 59 55 52 49 46 43
42 41 39 37 36 36 35 33 32 29 27 27 27 26 29 31 30 25 22 20 21 22 23 23 22 22 22 23 23 24 25 27 28 29 29 30 31 31 30 30 31 33 34 36 39 41 44 46 49 50 52 55 57 59 62 64 66 68 71 74 75 76 77 77 75 73 70 68 65 62 59 55 53 51
41 40 38 37 37 36 34 33 30 28 27 28 27 25 27 30 29 26 23 22 23 24 26 26 26 25 24 24 24 25 26 27 28 29 29 30 31 32 32 33 34 36 37 39 41 44 46 48 51 53 56 58 59 61 64 66 68 70 73 76 77 78 79 79 78 76 74 72 70 67 64 61 59 57
41 39 38 38 37 35 34 32 29 28 28 28 27 26 26 27 28 28 27 26 26 27 29 30 29 28 27 27 27 27 28 29 30 30 31 33 34 34 35 36 37 38 40 42 43 46 48 50 52 55 58 61 62 64 66 68 70 73 75 78 79 80 81 81 81 80 78 76 74 71 68 66 64 63
40 38 38 38 37 36 34 32 29 28 29 29 29 28 27 26 28 30 30 30 29 30 31 31 30 29 29 30 30 30 31 32 32 33 34 36 37 38 39 39 39 40 42 44 46 48 50 52 55 57 60 64 66 67 69 71 73 76 78 80 81 82 83 84 83 82 81 79 76 74 71 70 68 67
39 38 38 38 37 36 34 32 30 30 30 30 30 30 29 28 28 30 32 32 32 33 33 33 32 31 32 32 32 33 35 36 36 36 38 39 39 40 42 43 43 43 44 46 48 50 52 54 57 59 62 66 68 69 71 74 76 78 80 82 83 84 85 86 86 85 84 82 79 77 74 72 70 69
38 37 38 38 37 36 34 33 32 32 31 32 32 32 32 32 31 32 34 35 35 36 36 35 34 34 34 34 35 36 38 39 40 40 42 43 43 43 44 45 46 46 47 48 50 53 55 56 58 61 65 68 70 71 73 76 78 80 82 84 85 86 87 88 88 87 86 84 82 80 78 76 74 73
38 37 37 38 37 36 35 35 34 33 33 34 34 35 36 36 35 35 36 36 37 38 38 39 38 37 37 37 38 39 41 42 43 44 45 47 47 46 46 48 49 50 50 51 53 56 58 58 60 64 67 70 72 74 75 78 80 82 84 86 87 89 90 90 90 89 88 86 84 82 80 79 77 76
37 37 37 38 38 38 38 37 36 35 36 36 37 38 38 38 37 37 38 38 38 39 40 41 41 41 41 41 42 43 44 45 46 47 49 50 50 50 49 50 53 54 54 54 56 58 61 62 63 66 69 72 73 75 78 81 83 85 87 89 90 92 93 93 93 93 91 89 87 85 83 82 81 80
38 38 37 39 40 40 41 40 38 37 38 39 39 41 42 41 40 39 40 40 40 41 42 43 44 45 45 45 45 46 47 48 50 51 53 53 53 53 53 54 56 58 58 58 59 60 64 66 67 69 72 75 76 78 81 84 86 88 90 92 94 95 96 96 96 95 94 92 90 88 87 86 85 84
39 39 39 41 42 43 43 42 41 39 40 40 41 43 46 46 44 42 43 43 43 43 43 45 46 47 48 48 48 48 50 51 53 55 56 56 56 56 56 57 59 60 61 62 62 63 67 69 70 72 76 78 79 81 84 86 88 90 92 94 97 98 99 99 98 98 96 94 93 92 90 89 89 89
42 42 42 43 44 45 45 45 44 42 41 42 43 45 47 48 47 46 46 45 45 45 46 47 48 49 49 50 50 51 53 55 56 57 58 59 59 59 59 60 62 63 64 65 66 66 69 72 73 75 78 80 81 84 86 88 89 91 93 96 98 99 100 101 100 100 99 97 96 95 93 92 91 92
45 44 45 46 47 48 48 47 47 45 44 44 44 46 48 48 48 50 50 48 47 48 49 50 51 51 51 52 53 55 57 58 59 59 60 62 61 61 61 63 64 65 66 67 68 69 71 74 75 76 79 81 83 85 88 89 91 94 96 98 100 101 102 103 102 101 100 99 97 97 96 95 94 95
47 47 48 48 49 50 50 49 48 47 46 46 46 47 48 48 49 51 52 51 51 51 51 52 53 54 54 56 57 58 59 60 60 61 63 64 64 63 64 65 66 68 69 70 71 72 74 76 78 79 81 83 85 87 89 92 94 97 99 101 102 103 104 104 104 103 101 99 98 98 99 98 98 97
49 49 50 50 50 51 51 50 49 47 47 47 47 48 49 50 50 51 53 54 55 55 54 55 56 57 58 59 60 60 61 62 63 64 66 66 67 67 67 68 69 71 73 75 76 76 78 80 82 83 84 85 87 89 92 94 97 100 102 104 105 106 106 106 106 105 103 100 100 100 101 101 101 101
51 51 51 50 51 51 51 51 50 49 49 49 50 50 51 51 52 53 54 56 57 57 58 58 59 60 61 62 62 63 63 64 66 67 68 69 70 70 71 71 72 74 77 79 81 81 83 85 87 88 88 88 89 92 95 98 101 104 106 107 108 109 109 109 108 106 104 103 102 102 103 103 104 104
51 51 51 51 52 53 53 53 53 53 53 53 53 53 54 54 55 56 57 58 59 60 60 61 62 64 65 65 65 65 66 67 69 70 71 71 72 73 74 75 76 77 79 82 84 86 87 89 91 92 94 94 94 96 99 102 105 107 109 110 111 111 112 111 109 108 106 105 105 105 105 105 105 105
52 52 52 52 53 54 54 55 55 55 55 56 57 57 57 58 58 59 60 61 62 62 63 65 66 67 68 68 68 69 70 71 72 72 73 74 75 76 77 78 79 81 83 86 88 90 91 92 94 96 98 99 100 101 103 106 109 111 112 113 113 114 114 113 111 110 109 108 108 108 107 107 107 106
56 56 56 55 55 56 57 57 58 58 59 60 61 61 60 60 61 62 63 64 65 66 68 69 70 71 71 71 72 72 73 74 75 76 77 77 78 79 80 81 82 85 87 90 92 94 95 96 98 100 102 103 105 106 108 110 112 114 115 115 116 116 115 113 112 111 111 110 110 110 109 108 107 106
57 58 58 58 59 59 60 60 61 62 63 64 64 64 64 64 64 65 66 67 69 71 72 74 74 75 75 75 76 76 77 78 79 80 81 81 81 82 83 85 87 89 91 94 96 98 99 100 101 103 105 106 108 110 112 114 115 116 117 118 118 117 116 114 113 113 112 112 111 110 109 107 105 104
57 59 60 61 61 62 62 63 64 65 66 67 68 68 68 69 69 69 71 72 73 75 76 77 77 77 77 78 79 80 81 82 83 84 84 84 85 86 87 90 92 93 95 97 99 101 102 103 104 106 108 110 112 115 116 117 117 118 119 120 119 118 117 115 114 114 113 112 111 109 106 103 101 99
57 60 61 62 64 65 66 68 69 70 70 71 72 72 72 73 73 74 75 76 77 78 78 78 78 79 79 80 81 82 84 85 86 86 86 87 88 89 91 94 96 97 99 100 102 103 104 106 108 110 112 115 117 119 120 120 120 121 121 121 119 118 116 115 114 112 110 109 106 103 100 98 96 93
61 62 64 65 66 68 70 71 72 73 73 73 74 75 76 77 78 78 79 79 80 79 79 79 79 80 81 82 84 85 87 87 88 88 89 90 92 93 95 97 99 101 102 103 104 105 107 110 112 114 117 120 122 123 123 123 123 123 123 121 119 117 116 114 111 108 106 103 100 97 94 92 90 87
67 68 69 70 71 72 72 73 73 74 75 75 76 78 79 80 81 81 81 81 81 80 80 81 82 83 84 85 87 88 89 90 90 91 92 93 95 97 98 100 102 103 104 105 107 109 111 113 115 118 121 123 125 125 126 126 126 125 123 121 119 116 113 110 106 103 101 98 95 91 89 86 84 82
73 72 73 73 74 75 76 76 77 78 79 80 81 81 81 81 81 81 81 81 81 82 83 84 85 86 88 89 90 91 92 93 93 94 95 97 98 100 101 103 104 105 107 109 111 113 115 117 119 122 125 126 127 127 128 129 127 124 122 119 116 112 108 105 102 99 96 93 90 86 83 81 80 78
78 77 75 75 75 76 78 79 81 82 83 84 84 84 83 82 82 83 83 84 85 86 87 88 89 90 91 92 93 94 95 96 97 98 99 100 101 102 104 105 107 108 110 112 114 116 119 121 124 126 127 128 129 130 130 129 126 122 119 114 110 107 104 101 98 94 90 87 85 82 79 77 75 73
82 80 79 78 78 78 79 81 83 84 85 85 85 85 85 85 85 86 87 88 89 89 90 91 93 94 95 96 97 98 99 100 101 102 103 104 105 106 107 108 110 112 113 115 118 120 122 125 127 128 129 130 131 131 129 126 123 119 114 109 106 104 100 96 91 88 84 81 80 78 76 73 70 68
86 85 84 83 82 82 83 84 85 86 86 86 86 86 87 87 88 89 90 91 92 93 94 96 97 98 98 99 100 101 102 103 104 105 106 107 108 109 110 112 113 115 117 120 122 124 126 128 129 130 130 131 131 130 126 121 117 112 108 105 102 100 96 91 86 83 80 76 75 74 72 69 66 65
89 89 87 86 85 85 85 86 86 87 87 87 88 88 89 90 91 92 94 95 96 98 99 100 100 101 102 102 103 104 105 106 107 108 109 110 111 112 114 115 117 119 121 123 125 127 129 130 130 131 132 131 129 125 120 115 110 106 102 100 97 94 90 86 82 78 75 72 71 70 68 66 63 62
92 91 90 88 86 86 86 87 88 89 90 91 92 93 94 95 96 97 99 100 101 102 102 103 103 104 104 105 105 106 107 108 109 110 112 113 114 116 117 119 121 123 125 127 129 130 131 131 131 131 130 127 123 119 115 110 105 100 96 93 89 86 83 80 76 73 69 67 67 66 64 61 60 58
95 94 92 91 90 91 92 94 95 97 98 98 99 99 99 100 101 101 102 103 103 104 105 105 105 106 106 107 107 108 109 111 112 113 115 116 118 119 121 123 124 126 128 130 131 131 132 132 131 129 125 122 118 114 110 106 101 95 90 86 82 79 75 73 70 67 65 63 62 61 58 56 55 54
97 96 96 96 97 98 99 101 102 102 102 102 102 102 102 102 102 103 104 105 106 106 107 107 108 108 109 109 110 111 112 114 115 117 118 120 121 123 125 126 128 130 131 132 132 132 131 129 127 124 121 117 114 109 105 101 96 90 84 80 76 72 70 67 64 62 60 58 57 55 53 52 50 49
99 99 99 100 100 101 102 102 103 103 103 104 104 104 104 105 106 107 108 108 109 109 110 110 111 111 112 112 114 115 116 118 119 120 122 124 126 127 129 130 132 133 133 133 132 131 128 125 122 119 115 111 107 103 99 94 89 83 78 75 71 67 64 62 59 57 55 53 52 50 48 47 46 44
103 103 104 104 104 104 105 105 105 106 107 108 108 109 109 109 110 110 111 112 112 113 113 113 114 114 115 116 117 118 120 121 123 124 126 128 129 130 132 133 134 134 133 132 130 127 124 120 117 113 108 104 101 96 91 87 81 76 72 70 67 62 59 57 55 53 51 49 47 46 44 43 42 41
107 107 107 108 108 108 108 109 109 110 111 112 112 112 112 112 113 113 114 115 115 116 116 117 118 118 119 120 121 122 124 125 127 129 130 131 132 133 134 134 134 133 131 129 126 123 119 115 110 105 101 97 93 88 83 79 74 69 67 66 63 58 55 54 51 49 47 45 43 42 41 39 39 38
111 111 111 111 111 111 111 112 113 113 114 114 115 115 115 115 115 116 117 118 119 119 120 120 121 122 123 124 125 126 128 129 131 132 133 134 135 135 135 134 132 130 128 125 121 117 113 108 103 97 93 89 85 80 75 72 68 63 61 61 58 54 52 51 49 46 45 43 41 39 38 37 36 36
114 114 114 114 114 115 115 116 116 117 117 118 118 118 118 118 119 120 121 121 122 122 123 124 125 125 126 128 129 130 132 133 134 134 135 136 136 135 133 131 129 126 123 120 115 110 105 101 95 90 86 81 77 72 69 66 63 59 57 55 54 52 50 48 46 45 43 41 39 38 37 35 34 33
117 117 117 117 118 118 118 119 120 120 120 120 120 120 121 121 122 124 124 125 125 126 126 127 128 129 130 132 133 134 135 136 136 136 136 136 135 133 130 128 125 122 118 113 108 103 98 93 88 83 78 74 70 66 63 61 58 55 53 52 51 50 48 46 44 43 42 40 39 37 36 34 33 32
Wind_Direction
287 288 289 290 292 293 294 295 296 296 296 298 299 300 301 300 300 301 300 300 300 302 303 303 303 303 303 302 298 291 286 284 282 278 274 273 274 278 283 288 293 298 303 306 309 309 309 310 311 312 315 320 327 332 335 336 338 340 341 341 341 341 341 340 338 334 329 324 321 319 317 315 313 309
285 287 289 290 291 292 293 293 293 294 295 297 298 299 299 299 300 300 300 300 302 304 304 303 303 303 302 300 294 289 286 284 280 277 274 274 276 280 285 290 294 298 302 305 308 309 308 309 310 312 317 323 329 333 334 335 337 339 341 340 340 341 341 341 339 337 334 329 325 322 320 318 316 312
283 285 287 288 289 290 290 291 291 292 294 295 296 297 298 298 299 301 302 302 303 305 305 304 303 303 301 297 292 288 285 283 279 276 275 275 279 283 288 292 295 299 302 305 307 307 306 307 309 312 319 326 330 331 332 333 335 337 339 339 339 340 341 341 340 338 337 333 328 324 322 319 317 314
281 283 285 286 287 288 288 288 289 290 291 292 294 296 296 297 299 302 303 303 303 304 304 303 303 302 300 296 291 288 285 281 278 276 276 277 281 285 289 293 296 299 303 305 306 304 303 305 309 316 324 328 329 329 329 331 333 335 336 336 337 339 340 340 339 338 337 335 331 326 322 317 314 313
281 283 284 285 285 286 287 288 288 287 288 291 294 295 295 297 299 301 303 303 302 302 302 303 302 300 298 294 291 289 285 281 279 278 279 281 285 288 292 295 298 300 303 304 302 301 303 307 313 321 326 327 327 327 327 329 331 332 333 333 335 337 339 339 338 337 335 334 331 327 323 317 311 308
281 282 282 283 284 286 286 286 286 285 287 290 293 294 294 295 297 299 302 301 299 300 302 304 303 300 297 295 293 291 289 286 284 283 285 287 290 292 295 296 299 301 301 300 299 302 307 312 319 324 325 324 324 325 326 327 329 330 330 331 333 335 337 338 337 335 334 333 330 327 323 317 312 308
281 281 281 283 284 284 284 283 283 284 286 288 291 292 291 293 297 300 299 297 296 300 303 303 302 300 299 298 297 297 296 293 292 291 293 294 296 297 297 298 300 300 299 299 302 308 314 318 322 323 322 322 322 323 324 325 326 328 328 330 332 334 336 337 336 334 333 332 330 328 325 320 316 311
279 279 281 282 282 282 281 280 281 283 284 286 289 290 288 292 298 298 295 294 295 299 302 302 303 304 304 303 303 302 300 299 298 298 299 299 300 300 299 299 299 300 301 305 309 313 316 318 320 320 319 319 320 322 323 323 324 325 327 328 330 331 333 334 334 333 333 332 330 329 326 324 320 316
277 278 279 280 280 279 278 279 279 279 281 284 289 291 289 290 292 290 290 294 295 295 297 300 304 309 311 309 307 305 303 301 301 301 300 300 299 299 298 299 301 303 306 309 311 313 314 315 316 316 316 317 319 321 321 321 322 323 325 327 328 329 331 332 332 332 332 331 330 329 326 325 323 320
275 276 278 279 279 277 276 276 275 275 280 285 288 290 289 287 285 283 287 294 295 294 295 296 300 306 310 312 311 307 305 304 304 304 302 299 299 298 299 300 302 304 306 308 310 310 310 312 313 313 313 315 318 320 320 320 320 321 323 325 327 328 329 330 331 331 331 330 329 328 326 324 323 320
274 275 276 278 277 274 274 273 271 274 282 286 286 287 287 285 281 280 285 292 296 296 296 296 296 299 303 309 311 310 308 308 308 306 303 301 302 302 302 302 303 305 306 307 308 307 308 310 311 311 312 313 316 318 319 318 319 320 322 324 325 326 327 328 329 329 329 329 328 327 325 323 322 320
273 274 275 276 274 272 271 268 269 276 282 284 284 284 284 284 281 281 285 291 295 296 297 297 296 295 298 304 308 309 310 310 311 308 304 304 306 305 304 304 306 308 307 307 307 306 307 310 310 311 311 312 314 317 317 317 318 319 321 322 323 324 325 327 327 328 327 327 326 325 323 322 320 319
272 273 274 273 272 270 268 266 271 278 281 282 282 280 280 282 283 283 286 290 294 296 297 297 296 295 297 300 303 305 307 309 310 309 306 306 308 308 306 305 307 308 308 307 306 304 307 310 310 311 312 311 313 315 315 315 316 317 319 320 322 323 324 325 326 326 326 325 324 323 321 320 318 317
272 273 272 271 270 268 266 268 276 280 280 279 278 276 277 280 283 284 287 291 294 295 296 297 296 294 294 296 299 301 304 306 308 308 307 308 309 310 308 306 306 308 309 309 306 304 308 311 311 310 311 311 312 313 314 314 315 316 318 320 321 322 323 324 324 324 324 323 322 321 319 318 317 316
271 271 271 270 269 267 267 272 278 281 279 276 274 274 275 277 281 283 286 290 292 292 293 295 295 293 292 294 296 298 302 304 306 307 307 308 309 310 309 306 304 307 310 310 308 307 309 311 310 310 310 309 310 313 313 314 315 317 318 319 321 322 322 322 323 323 323 322 320 318 317 315 315 315
270 270 270 268 268 268 270 274 278 279 277 275 274 274 274 275 278 282 285 287 288 288 290 292 293 293 292 293 296 298 301 303 305 306 306 308 309 310 309 306 305 308 310 311 311 310 309 310 311 310 309 309 311 313 313 314 316 317 318 319 320 320 321 321 321 321 321 320 319 317 315 314 314 314
271 271 270 268 267 269 270 273 276 276 276 275 275 275 275 277 279 280 282 283 284 285 287 288 290 291 292 294 295 297 300 301 303 304 305 307 308 308 308 307 307 309 310 311 312 310 308 309 311 310 309 311 313 314 314 315 316 316 317 318 318 319 320 320 320 320 320 319 317 316 315 314 314 313
272 272 271 269 269 269 271 272 273 274 274 274 274 274 275 277 280 280 280 281 283 284 284 286 287 289 291 292 294 296 298 299 301 303 304 306 307 307 308 308 308 309 310 311 311 310 309 310 311 309 309 311 313 313 314 314 315 315 316 317 318 318 318 318 318 318 318 317 316 315 315 314 313 312
273 273 272 270 269 269 270 271 272 272 272 273 273 273 274 277 279 279 279 281 283 284 284 285 286 289 290 291 292 294 296 298 300 302 303 304 306 307 307 307 308 309 309 310 310 310 309 308 308 308 309 310 312 312 313 313 314 315 315 316 317 317 317 317 318 317 317 316 316 315 314 313 313 312
272 272 271 270 269 269 269 270 270 270 271 272 273 273 274 277 277 278 280 283 284 284 284 285 287 289 290 291 293 295 296 298 300 301 302 304 306 306 306 306 307 307 307 307 307 307 306 306 307 308 308 310 311 312 312 313 313 314 315 315 316 316 316 317 317 316 316 316 315 314 313 313 312 312
271 271 270 269 269 268 268 269 269 271 272 273 273 274 275 276 276 278 281 283 284 285 285 286 288 290 291 292 294 295 297 298 298 299 300 303 305 306 306 306 306 305 305 304 305 306 306 306 307 308 309 311 312 312 312 312 313 314 315 315 316 316 316 316 316 316 315 315 314 312 312 312 312 310
269 269 269 270 270 269 268 268 268 270 272 273 274 275 276 276 277 279 281 283 284 286 286 287 289 291 293 294 295 295 296 297 297 298 300 302 304 306 307 307 307 306 305 305 306 307 307 307 308 310 310 312 313 312 312 313 313 314 315 315 315 315 315 315 315 315 315 314 313 312 311 311 310 308
270 271 271 271 270 268 267 267 267 268 271 274 276 277 277 278 279 280 281 282 284 286 287 289 291 292 294 294 295 295 295 296 298 299 301 303 304 306 307 307 307 306 306 305 306 307 308 309 310 311 311 313 314 313 313 314 315 315 315 315 315 315 315 315 315 315 314 314 312 311 310 309 307 306
270 271 272 271 269 268 267 266 267 268 271 274 276 277 278 279 280 281 282 283 284 286 288 290 292 293 294 294 294 294 295 296 298 300 302 303 305 306 306 306 307 306 305 305 306 307 308 309 310 311 312 314 315 315 315 315 315 314 315 315 315 315 315 315 315 314 313 312 311 310 308 307 306 305
269 270 270 269 268 268 268 269 270 272 273 275 276 277 278 280 281 282 283 284 285 287 289 291 292 293 294 293 293 294 295 297 299 300 302 303 304 305 306 306 306 305 305 305 306 307 309 310 310 312 313 315 315 315 315 314 314 314 315 315 315 315 315 315 314 313 312 311 310 308 307 306 305 304
269 269 269 268 266 266 268 270 272 273 274 275 276 277 279 281 282 283 284 286 288 289 291 292 293 293 293 294 294 295 297 298 300 301 303 304 305 306 306 305 305 305 305 306 307 308 310 311 312 313 313 314 314 314 314 314 314 314 315 315 315 315 314 314 313 312 311 310 308 307 306 305 303 302
268 268 268 267 266 266 267 270 272 273 275 276 277 277 279 280 283 285 287 288 289 290 291 292 293 294 295 296 296 298 299 300 301 302 303 304 305 305 305 305 305 305 306 307 308 309 310 311 312 312 312 313 313 313 313 313 314 314 315 315 314 314 313 313 312 311 309 308 307 305 304 303 302 300
266 266 266 266 266 267 269 271 273 275 276 277 278 279 280 281 284 286 287 288 289 290 292 293 294 295 296 297 298 299 300 301 302 303 304 304 305 305 305 305 306 306 307 308 309 310 310 311 311 311 311 311 312 312 313 314 314 314 314 314 314 313 312 312 310 309 308 306 305 303 302 301 300 298
264 263 263 264 265 266 268 270 272 274 275 276 278 280 281 283 284 285 286 288 289 291 292 294 295 296 296 297 298 299 300 301 302 302 303 304 304 304 304 305 305 306 307 308 309 309 310 310 310 311 311 311 312 313 314 314 314 314 314 313 312 312 311 310 308 307 305 304 302 301 301 300 298 297
268 268 267 267 267 267 269 270 272 274 276 278 279 281 282 284 285 286 287 289 291 293 294 295 295 295 296 296 297 298 299 300 301 302 302 303 303 303 304 304 305 306 307 307 308 308 309 309 310 310 311 312 313 313 314 314 314 313 313 312 311 310 309 307 306 304 303 302 301 301 300 299 298 297
271 272 273 273 273 273 273 273 274 276 278 279 281 282 284 285 287 289 291 293 294 294 294 295 295 295 295 296 297 298 299 300 301 301 302 302 302 303 303 304 305 306 306 307 307 308 308 309 309 310 311 312 313 313 313 313 313 313 312 311 310 308 307 305 304 303 303 302 301 300 299 298 297 296
272 273 274 275 276 276 277 277 278 280 281 283 284 285 286 288 290 291 292 293 293 293 293 293 294 295 296 297 297 298 299 299 300 301 301 302 302 302 303 304 304 305 306 307 307 307 308 308 309 310 311 312 312 313 313 313 312 312 310 309 308 306 305 305 304 303 302 301 300 299 298 297 296 295
271 273 274 274 275 276 277 279 281 283 284 285 286 287 288 289 290 291 291 291 291 292 292 293 295 296 296 297 297 298 298 299 299 300 301 301 301 302 303 304 305 305 306 306 307 307 308 308 309 310 311 312 312 312 312 312 311 310 308 307 306 306 305 304 303 303 302 301 300 299 298 296 295 294
270 272 273 274 274 275 277 279 281 283 285 286 287 288 289 289 290 290 291 291 292 293 293 294 295 296 296 297 297 297 298 298 299 300 300 301 302 303 303 304 305 305 305 306 306 307 308 309 309 310 311 311 311 311 311 310 309 308 307 307 306 306 304 303 303 302 301 300 299 297 296 295 295 294
268 270 272 273 274 275 276 278 280 282 283 285 286 286 287 288 289 289 290 291 292 292 293 294 294 295 295 296 296 297 297 298 299 300 300 301 302 303 303 304 304 305 305 306 306 307 308 309 309 310 310 311 311 310 309 308 307 307 306 307 306 305 304 303 302 301 300 299 297 295 294 294 294 293
266 268 270 271 272 273 275 277 279 280 282 283 284 284 285 286 287 288 289 289 290 291 292 292 293 294 294 295 296 296 297 298 298 299 300 301 301 302 303 303 304 304 305 305 306 307 308 309 309 310 310 310 309 308 307 306 306 306 306 306 305 304 302 302 301 300 299 297 295 294 293 294 293 291
265 266 267 268 270 272 273 275 277 278 279 280 281 282 283 284 285 286 287 288 289 290 291 292 292 293 294 295 295 296 297 297 298 298 299 300 301 302 302 303 303 304 305 305 306 307 308 309 309 309 309 309 308 307 307 306 306 306 306 305 303 302 300 299 299 298 297 295 293 292 292 292 291 290
264 265 266 267 268 270 271 272 274 275 276 278 279 281 282 283 284 286 287 288 289 290 291 291 292 293 293 294 295 295 296 296 297 298 299 300 300 301 302 302 303 304 305 306 306 307 308 309 309 309 309 308 307 307 306 306 305 305 305 304 302 300 299 297 297 296 295 293 292 292 291 290 289 289
263 265 266 267 268 269 271 272 273 274 276 278 280 281 282 284 285 286 287 287 288 289 290 291 291 292 292 293 294 294 295 295 296 297 298 299 300 300 301 302 303 304 305 306 307 307 308 308 309 308 308 307 307 306 305 305 305 305 304 302 300 299 297 296 296 295 294 293 292 292 291 290 290 290
263 264 266 267 269 270 272 273 274 275 276 278 280 281 282 283 284 285 286 287 287 288 289 290 290 291 292 292 293 294 294 295 296 297 298 299 300 300 301 302 303 304 305 306 307 307 308 308 308 307 307 306 305 304 304 304 304 304 303 300 299 298 297 296 296 295 294 293 293 292 291 291 290 289
262 264 265 267 268 269 271 272 273 274 275 277 279 280 281 282 283 284 285 286 287 288 288 289 290 290 291 292 293 293 294 295 296 297 298 299 299 300 301 302 304 305 305 306 307 307 307 307 307 306 305 304 304 303 303 302 302 302 301 299 298 298 297 297 296 296 295 294 294 293 292 291 290 288
261 263 264 266 267 268 270 271 272 273 275 276 278 279 280 281 282 283 285 286 286 287 288 289 289 290 291 291 292 293 294 295 296 297 298 298 299 300 302 303 304 305 305 306 306 306 306 306 305 304 303 303 302 302 302 301 301 300 299 298 298 298 298 297 297 297 296 295 295 294 292 291 289 288
260 262 263 265 266 267 269 270 271 273 274 276 277 278 280 281 282 283 284 285 286 286 287 288 289 290 290 291 292 293 294 295 296 297 297 299 300 301 302 303 304 304 305 305 305 305 305 304 303 303 302 302 301 301 300 299 299 299 298 298 298 299 299 298 298 298 297 296 295 294 292 291 289 287
260 261 262 264 265 266 268 269 271 272 274 275 276 278 279 280 281 282 283 284 285 286 287 287 288 289 290 291 292 293 294 295 296 297 298 299 301 302 302 303 304 304 305 305 304 304 303 303 302 302 302 301 300 300 299 299 299 299 298 298 299 299 299 298 298 298 297 296 295 294 292 290 289 287
259 261 262 263 264 266 267 269 270 272 273 274 276 277 278 279 280 281 282 283 284 285 286 287 288 289 290 291 292 293 294 295 296 297 299 300 301 302 302 303 304 304 304 304 303 303 302 302 301 301 300 300 299 299 298 298 299 299 299 299 299 299 298 298 298 298 297 296 295 293 292 290 288 285